Skip Page Navigation
NASA JPL Caltech
NASA Logo - Jet Propulsion Laboratory + View the NASA Portal
+ Near-Earth Object (NEO) Program
Search JPL
JPL Home Earth Solar System Stars & Galaxies Technology
JPL Solar System Dynamics
BODIES ORBITS EPHEMERIDES TOOLS PHYSICAL DATA DISCOVERY FAQ SITE MAP
JPL Small-Body Database Browser
Search: [ help ]  
247742 (2003 LJ6)
Classification: Main-belt Asteroid          SPK-ID: 2247742
Ephemeris | Orbit Diagram | Orbital Elements | Physical Parameters | Discovery Circumstances | Close-Approach Data ]

[ show orbit diagram ]
Orbital Elements at Epoch 2457000.5 (2014-Dec-09.0) TDB
Reference: JPL 8 (heliocentric ecliptic J2000)
 Element Value Uncertainty (1-sigma)   Units 
e .269907828312902 1.2106e-07  
a 2.548951226315134 2.6029e-08 AU
q 1.860969336344908 3.1775e-07 AU
i 13.9480912681134 1.0022e-05 deg
node 289.6482964516705 4.1249e-05 deg
peri 342.0269130289386 4.511e-05 deg
M 290.9952476715592 2.4229e-05 deg
tp 2457285.416247397252
(2015-Sep-19.91624740)
0.00010291 JED
period 1486.417175657853
4.07
2.2769e-05
6.234e-08
d
yr
n .2421931109889607 3.7098e-09 deg/d
Q 3.23693311628536 3.3055e-08 AU
  Orbit Determination Parameters
   # obs. used (total)      131  
   data-arc span      5752 days (15.75 yr)  
   first obs. used      1999-06-15  
   last obs. used      2015-03-15  
   planetary ephem.      DE431  
   SB-pert. ephem.      SB431-BIG16  
   condition code      0  
   fit RMS      .51936  
   data source      ORB  
   producer      Otto Matic  
   solution date      2015-Apr-08 00:09:03  

Additional Information
 Earth MOID = .850722 AU 
 T_jup = 3.349 
[ show covariance matrix ]

Ephemeris | Orbit Diagram | Orbital Elements | Physical Parameters | Discovery Circumstances | Close-Approach Data ]

Physical Parameter Table
Parameter Symbol Value Units Sigma Reference Notes
absolute magnitude H 16.2 mag n/a MPO245563  

247742 (2003 LJ6)          Discovered 2003-Jun-08 by McNaught, R. H. at Siding Spring
Reference: 20100824/Numbers.arcLast Updated: 2010-08-27

[ show close-approach data ]
Alternate Designations
 2003 LJ6 = 1999 OL1 
Ephemeris | Orbit Diagram | Orbital Elements | Physical Parameters | Discovery Circumstances | Close-Approach Data ]
ABOUT SSD CREDITS/AWARDS PRIVACY/COPYRIGHT GLOSSARY LINKS
FirstGov 2015-May-23 14:56 UT
(server date/time)  
NASA Home Page
Site Manager:   Ryan S. Park
Webmaster  Alan B. Chamberlin